Location: Emory University Observatory
(33.7903°N, 84.3267°W)
Time: 18:08:04
(UTC-04:00)

Hubble Space Telescope - Pass Details

Date: 11 October 2017
Orbit: 537 x 541 km, 28.5° (Epoch: 16 October)

Event Time Altitude Azimuth Distance (km) Brightness Sun altitude
Exits shadow 06:34:16 13° 222° (SW) 1,576 2.8 -14.3°
Maximum altitude 06:35:29 15° 202° (SSW) 1,494 2.8 -14.1°
Drops below altitude 10° 06:37:52 10° 166° (SSE) 1,783 3.6 -13.6°
Sets 06:40:56 0° 143° (SE) 2,673 4.9 -12.9°
